VIV1166 MMMX-MMPR

Flight info

Callsign VIV1166
Flight time 1h 17m
Altitude 36000
Route SEBON3A SEBON UT124 GDL UJ14N PVR
Aircraft A320/M-SDE3FGHIRWY/LB1

Departure

Time 2026-04-23 06:34
Airport Mexico City Benito Juárez International Airport (MMMX)

Arrival

Time 2026-04-23 07:51
Airport Puerto Vallarta International Airport (MMPR)
Time Latitude Longitude Altitude Speed Heading
2026-04-23 06:06 19.43435 -99.08262 7304 ft 0 kts 330°
2026-04-23 06:25 19.43429 -99.08258 7304 ft 2 kts 330°
2026-04-23 06:25 19.43411 -99.08247 7305 ft 3 kts 327°
2026-04-23 06:25 19.43394 -99.08235 7305 ft 3 kts 324°
2026-04-23 06:26 19.43379 -99.08222 7305 ft 2 kts 319°
2026-04-23 06:26 19.43372 -99.08216 7305 ft 1 kts 318°
2026-04-23 06:26 19.43371 -99.08215 7305 ft 0 kts 318°
2026-04-23 06:30 19.43372 -99.08217 7305 ft 1 kts 307°
2026-04-23 06:30 19.43370 -99.08228 7305 ft 2 kts 249°
2026-04-23 06:31 19.43353 -99.08249 7305 ft 6 kts 224°
2026-04-23 06:31 19.43321 -99.08285 7305 ft 7 kts 232°
2026-04-23 06:31 19.43288 -99.08339 7304 ft 10 kts 239°
2026-04-23 06:31 19.43248 -99.08411 7304 ft 12 kts 239°
2026-04-23 06:32 19.43202 -99.08494 7304 ft 14 kts 239°
2026-04-23 06:32 19.43150 -99.08587 7303 ft 15 kts 237°
2026-04-23 06:32 19.43091 -99.08688 7303 ft 13 kts 239°
2026-04-23 06:32 19.43013 -99.08718 7303 ft 13 kts 179°
2026-04-23 06:33 19.42968 -99.08669 7303 ft 12 kts 65°
2026-04-23 06:33 19.42985 -99.08636 7303 ft 0 kts 59°
2026-04-23 06:33 19.43020 -99.08574 7303 ft 38 kts 59°
2026-04-23 06:33 19.43273 -99.08128 7305 ft 102 kts 59°
2026-04-23 06:34 19.43726 -99.07325 7305 ft 151 kts 57°
2026-04-23 06:34 19.44343 -99.06259 7468 ft 179 kts 59°
2026-04-23 06:34 19.45003 -99.05147 8295 ft 178 kts 61°
2026-04-23 06:34 19.45656 -99.03988 8735 ft 192 kts 62°
2026-04-23 06:35 19.46367 -99.02701 8921 ft 213 kts 61°
2026-04-23 06:35 19.47154 -99.01275 9077 ft 237 kts 61°
2026-04-23 06:35 19.48031 -98.99686 9287 ft 262 kts 60°
2026-04-23 06:35 19.48975 -98.97987 9878 ft 270 kts 59°
2026-04-23 06:36 19.49740 -98.96173 10625 ft 273 kts 80°
2026-04-23 06:36 19.49547 -98.94180 11256 ft 279 kts 113°
2026-04-23 06:36 19.48319 -98.92594 11962 ft 284 kts 147°
2026-04-23 06:36 19.46449 -98.91937 12616 ft 291 kts 179°
2026-04-23 06:37 19.44489 -98.92420 13285 ft 295 kts 211°
2026-04-23 06:37 19.43035 -98.93919 13950 ft 296 kts 243°
2026-04-23 06:37 19.42212 -98.95927 14608 ft 298 kts 251°
2026-04-23 06:37 19.41466 -98.97983 15326 ft 300 kts 252°
2026-04-23 06:38 19.40744 -99.00050 16046 ft 299 kts 253°
2026-04-23 06:38 19.40030 -99.02125 16725 ft 302 kts 250°
2026-04-23 06:38 19.39012 -99.04093 16853 ft 306 kts 238°
2026-04-23 06:38 19.37822 -99.05952 16996 ft 304 kts 242°
2026-04-23 06:39 19.36908 -99.07993 17090 ft 315 kts 257°
2026-04-23 06:39 19.36564 -99.10304 17486 ft 322 kts 267°
2026-04-23 06:39 19.36292 -99.12676 18112 ft 326 kts 264°
2026-04-23 06:39 19.35934 -99.15058 18775 ft 328 kts 263°
2026-04-23 06:40 19.35543 -99.17441 19365 ft 330 kts 263°
2026-04-23 06:40 19.35148 -99.19846 19940 ft 332 kts 263°
2026-04-23 06:40 19.34764 -99.22259 20505 ft 334 kts 263°
2026-04-23 06:40 19.34391 -99.24692 21040 ft 336 kts 264°
2026-04-23 06:41 19.34026 -99.27146 21243 ft 337 kts 264°
2026-04-23 06:41 19.33670 -99.29566 21271 ft 337 kts 264°
2026-04-23 06:41 19.33311 -99.32016 21321 ft 337 kts 264°
2026-04-23 06:41 19.32954 -99.34464 21342 ft 337 kts 264°
2026-04-23 06:42 19.32601 -99.36912 21378 ft 337 kts 265°
2026-04-23 06:42 19.32548 -99.39405 21402 ft 334 kts 277°
2026-04-23 06:42 19.33005 -99.41840 21438 ft 351 kts 288°
2026-04-23 06:42 19.33733 -99.44379 21451 ft 370 kts 288°
2026-04-23 06:43 19.34488 -99.47017 21475 ft 377 kts 288°
2026-04-23 06:43 19.35247 -99.49685 21479 ft 379 kts 288°
2026-04-23 06:43 19.36004 -99.52362 21490 ft 380 kts 288°
2026-04-23 06:43 19.36761 -99.55039 21478 ft 380 kts 288°
2026-04-23 06:44 19.37519 -99.57725 21487 ft 380 kts 287°
2026-04-23 06:44 19.38043 -99.60467 21485 ft 382 kts 277°
2026-04-23 06:44 19.38043 -99.63305 21829 ft 388 kts 267°
2026-04-23 06:44 19.37843 -99.66158 22425 ft 390 kts 268°
2026-04-23 06:45 19.37663 -99.69032 22982 ft 392 kts 268°
2026-04-23 06:45 19.37495 -99.71922 23339 ft 394 kts 268°
2026-04-23 06:45 19.37326 -99.74833 23518 ft 397 kts 268°
2026-04-23 06:45 19.37152 -99.77757 24040 ft 399 kts 268°
2026-04-23 06:46 19.36974 -99.80700 24446 ft 402 kts 268°
2026-04-23 06:46 19.36795 -99.83663 24841 ft 404 kts 268°
2026-04-23 06:46 19.36612 -99.86641 25223 ft 407 kts 268°
2026-04-23 06:46 19.36423 -99.89643 25594 ft 409 kts 268°
2026-04-23 06:47 19.36231 -99.92661 25978 ft 412 kts 268°
2026-04-23 06:47 19.36035 -99.95697 26354 ft 415 kts 268°
2026-04-23 06:47 19.35837 -99.98754 26744 ft 417 kts 269°
2026-04-23 06:47 19.35640 -100.01826 27117 ft 420 kts 269°
2026-04-23 06:48 19.35443 -100.04918 27482 ft 422 kts 269°
2026-04-23 06:48 19.35246 -100.08028 27851 ft 425 kts 269°
2026-04-23 06:48 19.35046 -100.11153 28229 ft 427 kts 269°
2026-04-23 06:48 19.34842 -100.14305 28594 ft 430 kts 269°
2026-04-23 06:49 19.34643 -100.17475 28964 ft 433 kts 269°
2026-04-23 06:49 19.34444 -100.20664 29330 ft 435 kts 269°
2026-04-23 06:49 19.34240 -100.23869 29696 ft 438 kts 269°
2026-04-23 06:49 19.34036 -100.27093 30067 ft 440 kts 269°
2026-04-23 06:50 19.33827 -100.30342 30375 ft 443 kts 269°
2026-04-23 06:50 19.33620 -100.33601 30681 ft 445 kts 269°
2026-04-23 06:50 19.33419 -100.36879 31004 ft 447 kts 269°
2026-04-23 06:50 19.33221 -100.40172 31322 ft 449 kts 269°
2026-04-23 06:51 19.33029 -100.43475 31616 ft 451 kts 269°
2026-04-23 06:51 19.32840 -100.46784 32006 ft 450 kts 269°
2026-04-23 06:51 19.32657 -100.50083 32469 ft 448 kts 269°
2026-04-23 06:51 19.32479 -100.53369 32929 ft 446 kts 269°
2026-04-23 06:52 19.32309 -100.56636 33397 ft 445 kts 269°
2026-04-23 06:52 19.32415 -100.59887 33857 ft 440 kts 282°
2026-04-23 06:52 19.33279 -100.62965 34277 ft 436 kts 296°
2026-04-23 06:52 19.34872 -100.65668 34682 ft 433 kts 310°
2026-04-23 06:53 19.37056 -100.67785 35080 ft 433 kts 325°
2026-04-23 06:53 19.39742 -100.69220 35454 ft 435 kts 340°
2026-04-23 06:53 19.42674 -100.70016 35801 ft 436 kts 344°
2026-04-23 06:53 19.45632 -100.70748 36038 ft 436 kts 344°
2026-04-23 06:54 19.51212 -100.73006 36096 ft 427 kts 327°
2026-04-23 06:54 19.53581 -100.74872 36102 ft 424 kts 315°
2026-04-23 06:54 19.55513 -100.77228 36108 ft 423 kts 303°
2026-04-23 06:55 19.56915 -100.79961 36113 ft 424 kts 292°
2026-04-23 06:55 19.57920 -100.82903 36133 ft 424 kts 290°
2026-04-23 06:55 19.59905 -100.88796 36161 ft 425 kts 290°
2026-04-23 06:56 19.61914 -100.94686 36179 ft 425 kts 291°
2026-04-23 06:56 19.63931 -101.00580 36208 ft 425 kts 291°
2026-04-23 06:57 19.65940 -101.06484 36222 ft 426 kts 290°
2026-04-23 06:57 19.67943 -101.12401 36227 ft 426 kts 290°
2026-04-23 06:58 19.69938 -101.18322 36214 ft 426 kts 290°
2026-04-23 06:58 19.71942 -101.24243 36196 ft 426 kts 290°
2026-04-23 06:59 19.73947 -101.30166 36174 ft 426 kts 290°
2026-04-23 06:59 19.75945 -101.36093 36147 ft 426 kts 290°
2026-04-23 07:00 19.77944 -101.42015 36126 ft 426 kts 290°
2026-04-23 07:00 19.79944 -101.47942 36123 ft 426 kts 290°
2026-04-23 07:01 19.81936 -101.53872 36124 ft 426 kts 290°
2026-04-23 07:01 19.83925 -101.59798 36123 ft 426 kts 290°
2026-04-23 07:02 19.85908 -101.65722 36121 ft 425 kts 290°
2026-04-23 07:02 19.87550 -101.70641 36119 ft 425 kts 290°
2026-04-23 07:03 19.89851 -101.77523 36114 ft 425 kts 290°
2026-04-23 07:03 19.91826 -101.83435 36107 ft 425 kts 290°
2026-04-23 07:04 19.93480 -101.88390 36102 ft 424 kts 290°
2026-04-23 07:04 19.95452 -101.94300 36099 ft 424 kts 290°
2026-04-23 07:05 19.97417 -102.00210 36096 ft 424 kts 290°
2026-04-23 07:05 19.99381 -102.06125 36090 ft 424 kts 290°
2026-04-23 07:06 20.01342 -102.12037 36088 ft 424 kts 290°
2026-04-23 07:06 20.03304 -102.17949 36088 ft 424 kts 290°
2026-04-23 07:07 20.05264 -102.23858 36078 ft 424 kts 290°
2026-04-23 07:07 20.07203 -102.29731 36076 ft 423 kts 290°
2026-04-23 07:08 20.09152 -102.35640 36074 ft 423 kts 290°
2026-04-23 07:08 20.11101 -102.41545 36069 ft 423 kts 290°
2026-04-23 07:09 20.13064 -102.47484 36066 ft 423 kts 290°
2026-04-23 07:09 20.15002 -102.53381 36067 ft 422 kts 290°
2026-04-23 07:10 20.16936 -102.59281 36061 ft 422 kts 290°
2026-04-23 07:10 20.18856 -102.65135 36058 ft 422 kts 290°
2026-04-23 07:11 20.21095 -102.70875 36054 ft 420 kts 300°
2026-04-23 07:12 20.25355 -102.79027 36048 ft 420 kts 299°
2026-04-23 07:12 20.28183 -102.84458 36049 ft 419 kts 299°
2026-04-23 07:13 20.31004 -102.89894 36047 ft 419 kts 299°
2026-04-23 07:13 20.33823 -102.95333 36047 ft 419 kts 299°
2026-04-23 07:14 20.36638 -103.00764 36068 ft 419 kts 299°
2026-04-23 07:14 20.39454 -103.06200 36114 ft 419 kts 299°
2026-04-23 07:15 20.42262 -103.11627 36157 ft 418 kts 299°
2026-04-23 07:15 20.45065 -103.17056 36201 ft 418 kts 299°
2026-04-23 07:16 20.47867 -103.22482 36244 ft 417 kts 299°
2026-04-23 07:16 20.50664 -103.27899 36243 ft 417 kts 299°
2026-04-23 07:17 20.53171 -103.33464 36244 ft 417 kts 291°
2026-04-23 07:17 20.55214 -103.39257 36245 ft 417 kts 291°
2026-04-23 07:18 20.57260 -103.45044 36203 ft 417 kts 291°
2026-04-23 07:18 20.59317 -103.50828 36164 ft 417 kts 292°
2026-04-23 07:19 20.61351 -103.56578 36121 ft 417 kts 291°
2026-04-23 07:19 20.63402 -103.62408 36077 ft 417 kts 291°
2026-04-23 07:20 20.65422 -103.68156 36044 ft 416 kts 291°
2026-04-23 07:20 20.67474 -103.73981 36046 ft 416 kts 291°
2026-04-23 07:20 20.68491 -103.76879 35869 ft 417 kts 291°
2026-04-23 07:21 20.69495 -103.79736 35489 ft 417 kts 291°
2026-04-23 07:21 20.70518 -103.82637 34713 ft 421 kts 291°
2026-04-23 07:21 20.71556 -103.85579 33874 ft 426 kts 291°
2026-04-23 07:21 20.72598 -103.88545 33243 ft 424 kts 291°
2026-04-23 07:22 20.73624 -103.91482 32730 ft 420 kts 291°
2026-04-23 07:22 20.74643 -103.94394 32183 ft 417 kts 291°
2026-04-23 07:22 20.75659 -103.97290 31632 ft 415 kts 291°
2026-04-23 07:22 20.76668 -104.00163 31084 ft 412 kts 291°
2026-04-23 07:23 20.77670 -104.03024 30536 ft 410 kts 291°
2026-04-23 07:23 20.78667 -104.05871 29972 ft 408 kts 291°
2026-04-23 07:23 20.79653 -104.08698 29397 ft 405 kts 291°
2026-04-23 07:23 20.80631 -104.11504 28869 ft 401 kts 291°
2026-04-23 07:24 20.81598 -104.14279 28333 ft 397 kts 291°
2026-04-23 07:24 20.82556 -104.17032 27831 ft 394 kts 291°
2026-04-23 07:24 20.83509 -104.19767 27322 ft 391 kts 291°
2026-04-23 07:24 20.84421 -104.22496 26836 ft 389 kts 287°
2026-04-23 07:25 20.84906 -104.25334 26347 ft 389 kts 275°
2026-04-23 07:25 20.84845 -104.28224 25880 ft 390 kts 264°
2026-04-23 07:25 20.84397 -104.31081 25413 ft 389 kts 262°
2026-04-23 07:25 20.83935 -104.33931 24955 ft 389 kts 262°
2026-04-23 07:26 20.83476 -104.36776 24493 ft 389 kts 262°
2026-04-23 07:26 20.83020 -104.39626 24020 ft 389 kts 262°
2026-04-23 07:26 20.82561 -104.42474 23526 ft 389 kts 262°
2026-04-23 07:26 20.82099 -104.45323 22990 ft 389 kts 262°
2026-04-23 07:27 20.81640 -104.48164 22489 ft 387 kts 262°
2026-04-23 07:27 20.81184 -104.50986 21979 ft 385 kts 262°
2026-04-23 07:27 20.80726 -104.53805 21465 ft 384 kts 262°
2026-04-23 07:27 20.80270 -104.56611 20942 ft 383 kts 262°
2026-04-23 07:28 20.79815 -104.59410 20408 ft 382 kts 262°
2026-04-23 07:28 20.79362 -104.62196 19873 ft 380 kts 262°
2026-04-23 07:28 20.78910 -104.64976 19428 ft 377 kts 262°
2026-04-23 07:28 20.78461 -104.67731 18841 ft 371 kts 262°
2026-04-23 07:29 20.78023 -104.70402 18234 ft 358 kts 262°
2026-04-23 07:29 20.77601 -104.72957 17751 ft 343 kts 261°
2026-04-23 07:29 20.77189 -104.75463 17260 ft 342 kts 261°
2026-04-23 07:29 20.76780 -104.77960 16781 ft 341 kts 261°
2026-04-23 07:30 20.76372 -104.80455 16286 ft 340 kts 261°
2026-04-23 07:30 20.75967 -104.82942 15801 ft 340 kts 261°
2026-04-23 07:30 20.75560 -104.85430 15310 ft 340 kts 261°
2026-04-23 07:30 20.75152 -104.87910 14830 ft 339 kts 261°
2026-04-23 07:31 20.74744 -104.90395 14348 ft 339 kts 261°
2026-04-23 07:31 20.74337 -104.92878 13857 ft 339 kts 261°
2026-04-23 07:31 20.73930 -104.95358 13333 ft 339 kts 261°
2026-04-23 07:31 20.73523 -104.97827 12847 ft 336 kts 261°
2026-04-23 07:32 20.73118 -105.00277 12372 ft 334 kts 261°
2026-04-23 07:32 20.72715 -105.02719 11896 ft 333 kts 261°
2026-04-23 07:32 20.72318 -105.05118 11435 ft 331 kts 261°
2026-04-23 07:32 20.71917 -105.07535 10969 ft 330 kts 261°
2026-04-23 07:33 20.71517 -105.09947 10501 ft 328 kts 261°
2026-04-23 07:33 20.71123 -105.12331 10178 ft 322 kts 261°
2026-04-23 07:33 20.70740 -105.14643 10061 ft 310 kts 261°
2026-04-23 07:33 20.70370 -105.16865 9942 ft 298 kts 261°
2026-04-23 07:34 20.70010 -105.19021 9685 ft 293 kts 261°
2026-04-23 07:34 20.69618 -105.21152 9309 ft 293 kts 255°
2026-04-23 07:34 20.68736 -105.23100 8937 ft 294 kts 235°
2026-04-23 07:34 20.67300 -105.24632 8436 ft 293 kts 216°
2026-04-23 07:35 20.65487 -105.25605 7766 ft 293 kts 204°
2026-04-23 07:35 20.63596 -105.26433 7107 ft 293 kts 204°
2026-04-23 07:35 20.61718 -105.27257 6490 ft 291 kts 204°
2026-04-23 07:35 20.59851 -105.28081 5849 ft 290 kts 203°
2026-04-23 07:36 20.57994 -105.28902 5237 ft 287 kts 203°
2026-04-23 07:36 20.56154 -105.29713 4635 ft 285 kts 203°
2026-04-23 07:36 20.54354 -105.30507 4328 ft 274 kts 202°
2026-04-23 07:36 20.52668 -105.31370 4164 ft 265 kts 218°
2026-04-23 07:37 20.51600 -105.32860 4048 ft 247 kts 252°
2026-04-23 07:37 20.51467 -105.34589 3831 ft 229 kts 284°
2026-04-23 07:37 20.52144 -105.36048 3545 ft 215 kts 315°
2026-04-23 07:37 20.53207 -105.37110 3311 ft 204 kts 319°
2026-04-23 07:38 20.54246 -105.38066 3105 ft 190 kts 329°
2026-04-23 07:38 20.55427 -105.38476 2979 ft 170 kts 359°
2026-04-23 07:38 20.56494 -105.38280 2862 ft 146 kts 24°
2026-04-23 07:38 20.57293 -105.37701 2643 ft 136 kts 46°
2026-04-23 07:39 20.57930 -105.36965 2340 ft 134 kts 46°
2026-04-23 07:39 20.58566 -105.36238 2009 ft 134 kts 47°
2026-04-23 07:39 20.59209 -105.35504 1893 ft 137 kts 47°
2026-04-23 07:39 20.59860 -105.34757 1798 ft 138 kts 47°
2026-04-23 07:40 20.60516 -105.34006 1741 ft 138 kts 47°
2026-04-23 07:40 20.61171 -105.33255 1711 ft 138 kts 47°
2026-04-23 07:40 20.61816 -105.32515 1556 ft 134 kts 46°
2026-04-23 07:40 20.62462 -105.31776 1135 ft 139 kts 46°
2026-04-23 07:41 20.63128 -105.31013 762 ft 140 kts 45°
2026-04-23 07:41 20.63763 -105.30292 560 ft 126 kts 44°
2026-04-23 07:41 20.64348 -105.29626 245 ft 122 kts 46°
2026-04-23 07:41 20.64989 -105.28893 314 ft 141 kts 47°
2026-04-23 07:42 20.65640 -105.28107 667 ft 146 kts 47°
2026-04-23 07:42 20.66353 -105.27316 504 ft 147 kts 44°
2026-04-23 07:42 20.67114 -105.26468 924 ft 169 kts 47°
2026-04-23 07:42 20.67938 -105.25491 1402 ft 183 kts 47°
2026-04-23 07:43 20.68838 -105.24426 1676 ft 205 kts 46°
2026-04-23 07:43 20.69836 -105.23297 1662 ft 218 kts 46°
2026-04-23 07:43 20.70951 -105.22189 1671 ft 213 kts 34°
2026-04-23 07:43 20.72209 -105.21602 1847 ft 183 kts
2026-04-23 07:44 20.73384 -105.21659 1990 ft 162 kts 341°
2026-04-23 07:44 20.74327 -105.22280 1959 ft 168 kts 313°
2026-04-23 07:44 20.74915 -105.23391 2041 ft 185 kts 285°
2026-04-23 07:44 20.74986 -105.24792 2154 ft 191 kts 260°
2026-04-23 07:45 20.74516 -105.26098 2075 ft 188 kts 238°
2026-04-23 07:45 20.73714 -105.27192 2035 ft 187 kts 226°
2026-04-23 07:45 20.72817 -105.28200 2036 ft 187 kts 226°
2026-04-23 07:45 20.71926 -105.29210 1967 ft 187 kts 226°
2026-04-23 07:46 20.71040 -105.30226 1868 ft 186 kts 227°
2026-04-23 07:46 20.70164 -105.31243 1778 ft 186 kts 227°
2026-04-23 07:46 20.69312 -105.32277 1707 ft 185 kts 229°
2026-04-23 07:46 20.68453 -105.33306 1645 ft 185 kts 228°
2026-04-23 07:47 20.67599 -105.34312 1630 ft 177 kts 228°
2026-04-23 07:47 20.66794 -105.35245 1568 ft 166 kts 225°
2026-04-23 07:47 20.65873 -105.35877 1515 ft 151 kts 197°
2026-04-23 07:47 20.65198 -105.35963 1452 ft 146 kts 175°
2026-04-23 07:48 20.64286 -105.35571 1408 ft 142 kts 142°
2026-04-23 07:48 20.63537 -105.34890 1397 ft 141 kts 140°
2026-04-23 07:48 20.62796 -105.34209 1420 ft 142 kts 133°
2026-04-23 07:48 20.62493 -105.32905 1388 ft 142 kts 78°
2026-04-23 07:49 20.62730 -105.32242 1322 ft 142 kts 61°
2026-04-23 07:49 20.63235 -105.31335 1215 ft 143 kts 51°
2026-04-23 07:49 20.64088 -105.30255 1014 ft 144 kts 50°
2026-04-23 07:49 20.64512 -105.29695 871 ft 144 kts 54°
2026-04-23 07:50 20.65265 -105.28544 612 ft 142 kts 47°
2026-04-23 07:50 20.65731 -105.28039 516 ft 142 kts 45°
2026-04-23 07:50 20.66413 -105.27262 203 ft 141 kts 46°
2026-04-23 07:50 20.67075 -105.26484 82 ft 143 kts 43°
2026-04-23 07:51 20.67715 -105.25760 27 ft 121 kts 46°
2026-04-23 07:51 20.68178 -105.25234 27 ft 73 kts 47°
2026-04-23 07:51 20.68390 -105.24959 27 ft 28 kts 62°
2026-04-23 07:51 20.68442 -105.24798 28 ft 14 kts 77°
2026-04-23 07:52 20.68411 -105.24716 29 ft 14 kts 177°
2026-04-23 07:52 20.68328 -105.24794 28 ft 18 kts 228°
2026-04-23 07:52 20.68234 -105.24901 28 ft 22 kts 227°
2026-04-23 07:52 20.68141 -105.25008 27 ft 11 kts 227°
2026-04-23 07:53 20.68063 -105.25012 27 ft 14 kts 144°
2026-04-23 07:53 20.67989 -105.24935 27 ft 13 kts 127°
2026-04-23 07:53 20.67986 -105.24841 28 ft 12 kts 91°
2026-04-23 07:53 20.67955 -105.24838 28 ft 8 kts 233°